ONEWEB-0192, 48222

Orbit data source: Space-Track

ONEWEB-0192, 48222 is a payload satellite owned by One Web (NAA) (UK) in LEO that was launched on Sun, 25 Apr 2021 UTC via a SOYUZ-2-1B launch vehicle from the Vostochny Cosmodrome (VOSTO). Payload-class satellites include a variety of spacecraft equipped with specific instruments for various scientific and technological missions. These include communications satellites like Starlink; space stations such as the ISS; scientific satellites like the Hubble; Earth observation satellites from companies like Planet Labs, Umbra, and HawkEye 360; GPS; miniature CubeSats for education and research; and military/defense satellites.

Loading next visibility...
Identifier
48222, 2021-031N
Orbit
LEO
Country
Flag of UKUK
Related business
Manufacturer
One Web
Mission
Operational Commercial Communications
Bus & Motor
ARROW, Unknown motor
Mass
148 kg wet, ~140 kg dry
Launch date (UTC)
2021-04-25 (5 years ago)
Launch vehicle
SOYUZ-2-1B
Launch site
Vostochny Cosmodrome (VOSTO)
Object type
Payload
Rocket body
Debris
Shape & HBR
Trap Box + 2 Pan, 6.7 m
Radar Cross Section
3.464 m², Large (>1 m²)

Expand to show TLE details & history
Last TLE update: 8 hours ago

TLE from 8 hours ago
0 ONEWEB-0192
1 48222U 21031N   26095.09479979  .00000174  00000-0  43479-3 0  9993
2 48222  87.8926 304.3003 0001766  85.2419 274.8912 13.14504812238579
Epoch: 2026-04-05T02:16Z
TLE epoch observation values (Epoch: 2026-04-05T02:16:30.701Z)
Latitude
-0.00008°
Longitude
76.76723°
Altitude
1,208.562 km
Speed
7.25 km/s
True Right ascension
20h 17m 12s
True Declination
0° 00' 00"
Sunlit
Object was in daylight at epoch
Visualization orbit readout
Latitude
Unknown
Longitude
Unknown
Altitude
Unknown
Speed
Unknown
Apparent Right ascension
Unknown
Apparent Declination
Unknown
Sunlit
N/A
Visualization observer readout
Local Sidereal Time
16:37:43
Azimuth
Unknown
Elevation
Unknown
Doppler factor
Unknown
Orbital elements
Apogee altitude
1,204.235 km
Perigee altitude
1,201.557 km
Semi-major axis
7,581.033 km
Eccentricity
0.00018
Inclination
87.8926°
RAAN
304.3003°
Arg. of periapsis
85.2419°
True anomaly
274.87104°
Mean anomaly
274.8912°
Eccentric anomaly
274.88112°
Mean motion
3.28814 °/min
Orbital period
109.48 mins
BSTAR
0.00043479
Loading maneuver chart data...
Computing Atmospheric mass density...
Loading historical data...
Loading historical data...
Loading historical data...
Loading historical data...
Loading historical data...
Loading historical data...
Loading historical data...

Documentation

Showing up to 5 results
|